Location: Newark
(9.4667°S, 159.8167°E)
Time: 21:54:59
(UTC+00:00)

Courier 1B Rocket - Pass Details

Date: 29 November 2019
Orbit: 920 x 1202 km, 28.2° (Epoch: 12 December)

Event Time Altitude Azimuth Distance (km) Brightness Sun altitude
Rises 18:22:39 0° 239° (WSW) 3,876 7.8 -7.1°
Reaches altitude 10° 18:25:29 10° 238° (WSW) 2,874 7.1 -6.5°
Maximum altitude 18:32:28 75° 153° (SSE) 1,033 5.4 -4.9°
Drops below altitude 10° 18:38:56 10° 67° (ENE) 2,676 8.0 -3.4°
Sets 18:41:30 0° 66° (ENE) 3,592 8.7 -2.8°
